Regional Weather Roundup
Issued by NWS

Home | Current Version | Previous Version | Text Only | Print | Product List | Glossary On
Versions: 1 2 3 4 5 6 7 8 9 10 11 12 13 14 15 16 17 18 19 20 21 22 23 24 25 26 27 28 29 30 31 32 33 34 35 36 37 38 39 40 41 42 43 44 45 46 47 48 49 50
000
ASUS44 KFWD 241903
RWRTX
NORTH TEXAS HOURLY WEATHER ROUNDUP
NATIONAL WEATHER SERVICE FORT WORTH TX
200 PM CDT THU APR 24 2014

NOTE: "FAIR" INDICATES FEW OR NO CLOUDS BELOW 12,000 FEET WITH NO
SIGNIFICANT WEATHER AND/OR OBSTRUCTIONS TO VISIBILITY.

TXZ118-119-242000-
DALLAS/FORT WORTH METROPLEX

CITY           SKY/WX    TMP DP  RH WIND       PRES   REMARKS
DFW AIRPORT    MOSUNNY   81  55  40 NW14      29.82R
DALLAS LOVE    MOSUNNY   82  54  37 NW16G26   29.82R
FTW MEACHAM    SUNNY     80  56  43 W17G24    29.83S
DAL-EXECUTIVE  MOSUNNY   83  52  34 NW16G24   29.82R
FTW-ALLIANCE   SUNNY     77  54  44 NW16G23   29.83S
FTW-NAS-JRB    SUNNY     82  51  34 NW17G26   29.88S
FTW-SPINKS     SUNNY     82  52  34 W13       29.86R
ARLINGTON      SUNNY     80  53  39 W14G24    29.83R
GRAND PRAIRIE  SUNNY     81  54  39 W14G24    29.83R
MESQUITE         N/A     81  55  41 NW13G23   29.82R
LANCASTER      MOSUNNY   82  56  41 NW18G26   29.83R
$$

TXZ091>094-102>105-117-120-121-131>134-242000-
NORTH CENTRAL TEXAS

CITY           SKY/WX    TMP DP  RH WIND       PRES   REMARKS
SHRMAN/DENISON MOSUNNY   77  57  49 W18G28    29.81R
BOWIE          SUNNY     76  50  39 NW18G25   29.86R
BRIDGEPORT     SUNNY     77  46  32 NW13G20   29.88S
DECATUR        SUNNY     76  49  38 NW17G24   29.85S
DENTON         SUNNY     77  55  46 NW17G23   29.83R
MCKINNEY       LGT RAIN  79  57  46 W15G23    29.82R
GREENVILLE     PTSUNNY   77  61  57 SW10G18   29.81S
ROCKWALL       PTSUNNY   82  59  46 W13G25    29.80S
TERRELL        PTSUNNY   79  65  62 SW10      29.81F
WAXAHACHIE     SUNNY     81  54  38 NW17G23   29.84R
CLEBURNE       SUNNY     81  52  36 NW15G23   29.88R
GRANBURY       SUNNY     82  49  31 NW13G21   29.87S
$$

TXZ083>090-098>101-113>116-127>130-139>142-154-155-242000-
WESTERN NORTH TEXAS

CITY           SKY/WX    TMP DP  RH WIND       PRES   REMARKS
WICHITA FALLS  SUNNY     77  41  27 NW20      29.87R
WF-KICKAPOO    SUNNY     77  37  23 NW17G25   29.89R
VERNON         SUNNY     77  38  24 NW20G26   29.91F
ABILENE        SUNNY     79  37  22 NW21G28   29.94F
ABILENE-DYESS  MOSUNNY   78  38  23 NW23G30   29.94F
BRECKENRIDGE   SUNNY     80  38  22 NW16G28   29.91S
MINERAL WELLS  SUNNY     79  45  29 NW21G29   29.86S
STEPHENVILLE   SUNNY     79  42  26 NW14G24   29.91S
COMANCHE       SUNNY     79  39  23 N20G28    29.91S
BROWNWOOD      SUNNY     82  37  20 NW21G26   29.91S
BRADY          SUNNY     84  36  17 NW18      29.91R
$$

TXZ143>147-156>162-174-175-242000-
CENTRAL TEXAS

CITY           SKY/WX    TMP DP  RH WIND       PRES   REMARKS
WACO           MOSUNNY   85  64  49 VRB6G16   29.82F
WACO-TSTC      MOSUNNY   84  63  48 W12G20    29.83F
WACO-MCGREGOR  MOSUNNY   88  63  42 SW6       29.83F
HILLSBORO      MOSUNNY   83  50  31 NW22G31   29.84R
CORSICANA      CLOUDY    81  65  58 SW14      29.84F
MEXIA          PTSUNNY   78  67  68 SW13G20   29.84F
HEARNE         CLOUDY    80  66  61 SW10      29.87S
CAMERON        PTSUNNY   82  66  56 SW14      29.86S
TEMPLE         MOSUNNY   86  61  42 W12G20    29.87F
KILLEEN        MOSUNNY   88  61  40 W15G22    29.83F
KILLEEN-SKYLRK SUNNY     84  55  37 NW8       29.83F
HAMILTON       SUNNY     83  41  23 NW17G28   29.90R
LAMPASAS       SUNNY     91  51  25 W14G22    29.84S
$$

TXZ095>097-106>112-122>126-135>138-148>153-164>167-242000-
EAST TEXAS

CITY           SKY/WX    TMP DP  RH WIND       PRES   REMARKS
PARIS          SUNNY     79  64  61 S18G25    29.78F
SULPHUR SPRNGS MOSUNNY   77  64  64 SW21      29.82F
CLARKSVILLE    PTSUNNY   77  63  62 S10       29.79F
MOUNT PLEASANT CLOUDY    78  63  60 SW18      29.83S
MINEOLA        PTSUNNY   77  64  65 SW12G18   29.84S
TYLER          PTSUNNY   78  63  59 SW21G28   29.84F
LONGVIEW       CLOUDY    77  62  59 SW10      29.83R
ATHENS         CLOUDY    75  64  69 SW8       29.84F
PALESTINE      CLOUDY    74  63  68 S10       29.89R
JACKSONVILLE   CLOUDY    74  61  64 SW10G16   29.88S
NACOGDOCHES    CLOUDY    77  64  65 SW13      29.85F
LUFKIN         MOSUNNY   84  65  52 S12G20    29.84F
$$

SUPPLEMENTAL OBSERVATIONS (CENTRAL)

CITY           SKY/WX    TMP DP  RH WIND       PRES   REMARKS
$$

SUPPLEMENTAL OBSERVATIONS (WEST)

CITY           SKY/WX    TMP DP  RH WIND       PRES   REMARKS
$$

SUPPLEMENTAL OBSERVATIONS (EAST)

CITY           SKY/WX    TMP DP  RH WIND       PRES   REMARKS
$$

SUPPLEMENTAL OBSERVATIONS ARE A COLLECTION OF AUTOMATED INSTRUMENTS
THAT ARE MAINTAINED BY A VARIETY OF FEDERAL AND STATE AGENCIES.
CERTAIN ELEMENTS...SUCH AS HUMIDITY VALUES AND SUSTAINED WIND
SPEEDS...MAY BE APPROXIMATED.




USA.gov is the U.S. government's official web portal to all federal, state and local government web resources and services.